Location: Freistadt
(48.5112°N, 14.5013°E)
Time: 23:18:20
(UTC+01:00)

SPROUT - Visible Passes

Search period start: 22 March 2023 00:00
Search period end: 01 April 2023 01:00
Orbit: 566 x 579 km, 98.0° (Epoch: 22 March)

Date Brightness Start Highest point End Pass type
(mag) Time Alt. Az. Time Alt. Az. Time Alt. Az.
30 Mar ? 02:31:49 10° NNW 02:31:49 10° NNW 02:31:50 10° NNW visible
31 Mar ? 00:57:54 10° NNE 00:57:54 10° NNE 00:57:55 10° NNE visible
31 Mar ? 02:34:03 11° NNW 02:34:03 11° NNW 02:34:10 10° NNW visible
